Year,Month,Day,Hour,Minute,Value (Times are PST for temperature in C)
2020,08,13,00,00,13.20
2020,08,13,00,01,13.20
2020,08,13,00,02,13.20
2020,08,13,00,03,13.20
2020,08,13,00,04,13.10
2020,08,13,00,05,13.10
2020,08,13,00,06,13.10
2020,08,13,00,07,13.00
2020,08,13,00,08,13.00
2020,08,13,00,09,12.90
2020,08,13,00,10,12.90
2020,08,13,00,11,12.80
2020,08,13,00,12,12.80
2020,08,13,00,13,12.80
2020,08,13,00,14,12.70
2020,08,13,00,15,12.70
2020,08,13,00,16,12.70
2020,08,13,00,17,12.60
2020,08,13,00,18,12.60
2020,08,13,00,19,12.60
2020,08,13,00,20,12.60
2020,08,13,00,21,12.60
2020,08,13,00,22,12.50
2020,08,13,00,23,12.50
2020,08,13,00,24,12.50
2020,08,13,00,25,12.50
2020,08,13,00,26,12.40
2020,08,13,00,27,12.40
2020,08,13,00,28,12.40
2020,08,13,00,29,12.40
2020,08,13,00,30,12.40
2020,08,13,00,31,12.40
2020,08,13,00,32,12.40
2020,08,13,00,33,12.40
2020,08,13,00,34,12.40
2020,08,13,00,35,12.40
2020,08,13,00,36,12.50
2020,08,13,00,37,12.50
2020,08,13,00,38,12.40
2020,08,13,00,39,12.40
2020,08,13,00,40,12.40
2020,08,13,00,41,12.40
2020,08,13,00,42,12.40
2020,08,13,00,43,12.40
2020,08,13,00,44,12.40
2020,08,13,00,45,12.40
2020,08,13,00,46,12.40
2020,08,13,00,47,12.40
2020,08,13,00,48,12.40
2020,08,13,00,49,12.40
2020,08,13,00,50,12.30
2020,08,13,00,51,12.20
2020,08,13,00,52,12.20
2020,08,13,00,53,12.10
2020,08,13,00,54,12.00
2020,08,13,00,55,11.90
2020,08,13,00,56,11.80
2020,08,13,00,57,11.70
2020,08,13,00,58,11.60
2020,08,13,00,59,11.50
2020,08,13,01,00,11.50
2020,08,13,01,01,11.40
2020,08,13,01,02,11.40
2020,08,13,01,03,11.30
2020,08,13,01,04,11.30
2020,08,13,01,05,11.20
2020,08,13,01,06,11.20
2020,08,13,01,07,11.20
2020,08,13,01,08,11.10
2020,08,13,01,09,11.10
2020,08,13,01,10,11.10
2020,08,13,01,11,11.00
2020,08,13,01,12,10.90
2020,08,13,01,13,10.90
2020,08,13,01,14,10.80
2020,08,13,01,15,10.80
2020,08,13,01,16,10.70
2020,08,13,01,17,10.60
2020,08,13,01,18,10.50
2020,08,13,01,19,10.50
2020,08,13,01,20,10.40
2020,08,13,01,21,10.30
2020,08,13,01,22,10.30
2020,08,13,01,23,10.30
2020,08,13,01,24,10.20
2020,08,13,01,25,10.20
2020,08,13,01,26,10.20
2020,08,13,01,27,10.20
2020,08,13,01,28,10.20
2020,08,13,01,29,10.20
2020,08,13,01,30,10.20
2020,08,13,01,31,10.20
2020,08,13,01,32,10.20
2020,08,13,01,33,10.20
2020,08,13,01,34,10.20
2020,08,13,01,35,10.20
2020,08,13,01,36,10.20
2020,08,13,01,37,10.20
2020,08,13,01,38,10.20
2020,08,13,01,39,10.20
2020,08,13,01,40,10.20
2020,08,13,01,41,10.10
2020,08,13,01,42,10.10
2020,08,13,01,43,10.10
2020,08,13,01,44,10.10
2020,08,13,01,45,10.10
2020,08,13,01,46,10.00
2020,08,13,01,47,10.00
2020,08,13,01,48,10.00
2020,08,13,01,49,9.90
2020,08,13,01,50,9.90
2020,08,13,01,51,9.90
2020,08,13,01,52,9.90
2020,08,13,01,53,9.90
2020,08,13,01,54,9.80
2020,08,13,01,55,9.80
2020,08,13,01,56,9.80
2020,08,13,01,57,9.70
2020,08,13,01,58,9.70
2020,08,13,01,59,9.70
2020,08,13,02,00,9.60
2020,08,13,02,01,9.60
2020,08,13,02,02,9.50
2020,08,13,02,03,9.50
2020,08,13,02,04,9.40
2020,08,13,02,05,9.40
2020,08,13,02,06,9.40
2020,08,13,02,07,9.40
2020,08,13,02,08,9.40
2020,08,13,02,09,9.40
2020,08,13,02,10,9.50
2020,08,13,02,11,9.50
2020,08,13,02,12,9.50
2020,08,13,02,13,9.50
2020,08,13,02,14,9.50
2020,08,13,02,15,9.40
2020,08,13,02,16,9.40
2020,08,13,02,17,9.40
2020,08,13,02,18,9.40
2020,08,13,02,19,9.40
2020,08,13,02,20,9.40
2020,08,13,02,21,9.30
2020,08,13,02,22,9.30
2020,08,13,02,23,9.40
2020,08,13,02,24,9.40
2020,08,13,02,25,9.40
2020,08,13,02,26,9.40
2020,08,13,02,27,9.40
2020,08,13,02,28,9.50
2020,08,13,02,29,9.50
2020,08,13,02,30,9.60
2020,08,13,02,31,9.60
2020,08,13,02,32,9.50
2020,08,13,02,33,9.50
2020,08,13,02,34,9.50
2020,08,13,02,35,9.40
2020,08,13,02,36,9.40
2020,08,13,02,37,9.40
2020,08,13,02,38,9.40
2020,08,13,02,39,9.40
2020,08,13,02,40,9.40
2020,08,13,02,41,9.30
2020,08,13,02,42,9.30
2020,08,13,02,43,9.20
2020,08,13,02,44,9.10
2020,08,13,02,45,9.10
2020,08,13,02,46,9.00
2020,08,13,02,47,9.00
2020,08,13,02,48,8.90
2020,08,13,02,49,8.80
2020,08,13,02,50,8.80
2020,08,13,02,51,8.70
2020,08,13,02,52,8.70
2020,08,13,02,53,8.60
2020,08,13,02,54,8.50
2020,08,13,02,55,8.40
2020,08,13,02,56,8.40
2020,08,13,02,57,8.30
2020,08,13,02,58,8.30
2020,08,13,02,59,8.30
2020,08,13,03,00,8.30
2020,08,13,03,01,8.30
2020,08,13,03,02,8.30
2020,08,13,03,03,8.30
2020,08,13,03,04,8.30
2020,08,13,03,05,8.30
2020,08,13,03,06,8.30
2020,08,13,03,07,8.30
2020,08,13,03,08,8.30
2020,08,13,03,09,8.30
2020,08,13,03,10,8.20
2020,08,13,03,11,8.20
2020,08,13,03,12,8.20
2020,08,13,03,13,8.20
2020,08,13,03,14,8.20
2020,08,13,03,15,8.20
2020,08,13,03,16,8.20
2020,08,13,03,17,8.20
2020,08,13,03,18,8.20
2020,08,13,03,19,8.20
2020,08,13,03,20,8.20
2020,08,13,03,21,8.20
2020,08,13,03,22,8.10
2020,08,13,03,23,8.10
2020,08,13,03,24,8.00
2020,08,13,03,25,8.00
2020,08,13,03,26,8.00
2020,08,13,03,27,7.90
2020,08,13,03,28,7.90
2020,08,13,03,29,7.90
2020,08,13,03,30,7.90
2020,08,13,03,31,7.90
2020,08,13,03,32,7.90
2020,08,13,03,33,7.90
2020,08,13,03,34,7.90
2020,08,13,03,35,7.90
2020,08,13,03,36,7.90
2020,08,13,03,37,7.90
2020,08,13,03,38,7.90
2020,08,13,03,39,7.90
2020,08,13,03,40,7.90
2020,08,13,03,41,8.00
2020,08,13,03,42,8.00
2020,08,13,03,43,8.00
2020,08,13,03,44,8.00
2020,08,13,03,45,8.00
2020,08,13,03,46,8.00
2020,08,13,03,47,8.00
2020,08,13,03,48,8.10
2020,08,13,03,49,8.10
2020,08,13,03,50,8.10
2020,08,13,03,51,8.20
2020,08,13,03,52,8.20
2020,08,13,03,53,8.20
2020,08,13,03,54,8.20
2020,08,13,03,55,8.20
2020,08,13,03,56,8.20
2020,08,13,03,57,8.20
2020,08,13,03,58,8.20
2020,08,13,03,59,8.20
2020,08,13,04,00,8.10
2020,08,13,04,01,8.10
2020,08,13,04,02,8.10
2020,08,13,04,03,8.10
2020,08,13,04,04,8.00
2020,08,13,04,05,8.00
2020,08,13,04,06,8.00
2020,08,13,04,07,7.90
2020,08,13,04,08,8.00
2020,08,13,04,09,8.00
2020,08,13,04,10,8.00
2020,08,13,04,11,8.00
2020,08,13,04,12,8.00
2020,08,13,04,13,8.00
2020,08,13,04,14,8.00
2020,08,13,04,15,8.00
2020,08,13,04,16,8.00
2020,08,13,04,17,8.00
2020,08,13,04,18,8.00
2020,08,13,04,19,7.90
2020,08,13,04,20,7.90
2020,08,13,04,21,7.90
2020,08,13,04,22,7.90
2020,08,13,04,23,7.90
2020,08,13,04,24,7.90
2020,08,13,04,25,7.90
2020,08,13,04,26,7.90
2020,08,13,04,27,7.90
2020,08,13,04,28,7.90
2020,08,13,04,29,7.90
2020,08,13,04,30,7.80
2020,08,13,04,31,7.80
2020,08,13,04,32,7.80
2020,08,13,04,33,7.80
2020,08,13,04,34,7.80
2020,08,13,04,35,7.80
2020,08,13,04,36,7.70
2020,08,13,04,37,7.60
2020,08,13,04,38,7.60
2020,08,13,04,39,7.50
2020,08,13,04,40,7.50
2020,08,13,04,41,7.40
2020,08,13,04,42,7.40
2020,08,13,04,43,7.30
2020,08,13,04,44,7.30
2020,08,13,04,45,7.30
2020,08,13,04,46,7.30
2020,08,13,04,47,7.30
2020,08,13,04,48,7.30
2020,08,13,04,49,7.40
2020,08,13,04,50,7.40
2020,08,13,04,51,7.40
2020,08,13,04,52,7.40
2020,08,13,04,53,7.40
2020,08,13,04,54,7.40
2020,08,13,04,55,7.40
2020,08,13,04,56,7.40
2020,08,13,04,57,7.40
2020,08,13,04,58,7.40
2020,08,13,04,59,7.40
2020,08,13,05,00,7.40
2020,08,13,05,01,7.40
2020,08,13,05,02,7.40
2020,08,13,05,03,7.40
2020,08,13,05,04,7.30
2020,08,13,05,05,7.30
2020,08,13,05,06,7.30
2020,08,13,05,07,7.30
2020,08,13,05,08,7.20
2020,08,13,05,09,7.20
2020,08,13,05,10,7.20
2020,08,13,05,11,7.10
2020,08,13,05,12,7.10
2020,08,13,05,13,7.10
2020,08,13,05,14,7.10
2020,08,13,05,15,7.10
2020,08,13,05,16,7.00
2020,08,13,05,17,7.00
2020,08,13,05,18,7.00
2020,08,13,05,19,7.00
2020,08,13,05,20,7.00
2020,08,13,05,21,7.00
2020,08,13,05,22,7.00
2020,08,13,05,23,7.10
2020,08,13,05,24,7.10
2020,08,13,05,25,7.10
2020,08,13,05,26,7.20
2020,08,13,05,27,7.20
2020,08,13,05,28,7.20
2020,08,13,05,29,7.30
2020,08,13,05,30,7.30
2020,08,13,05,31,7.30
2020,08,13,05,32,7.30
2020,08,13,05,33,7.30
2020,08,13,05,34,7.30
2020,08,13,05,35,7.30
2020,08,13,05,36,7.30
2020,08,13,05,37,7.30
2020,08,13,05,38,7.30
2020,08,13,05,39,7.40
2020,08,13,05,40,7.40
2020,08,13,05,41,7.40
2020,08,13,05,42,7.40
2020,08,13,05,43,7.40
2020,08,13,05,44,7.50
2020,08,13,05,45,7.50
2020,08,13,05,46,7.40
2020,08,13,05,47,7.40
2020,08,13,05,48,7.40
2020,08,13,05,49,7.40
2020,08,13,05,50,7.40
2020,08,13,05,51,7.30
2020,08,13,05,52,7.30
2020,08,13,05,53,7.20
2020,08,13,05,54,7.20
2020,08,13,05,55,7.10
2020,08,13,05,56,7.10
2020,08,13,05,57,7.10
2020,08,13,05,58,7.10
2020,08,13,05,59,7.10
2020,08,13,06,00,7.10
2020,08,13,06,01,7.10
2020,08,13,06,02,7.10
2020,08,13,06,03,7.10
2020,08,13,06,04,7.10
2020,08,13,06,05,7.10
2020,08,13,06,06,7.10
2020,08,13,06,07,7.10
2020,08,13,06,08,7.10
2020,08,13,06,09,7.10
2020,08,13,06,10,7.10
2020,08,13,06,11,7.00
2020,08,13,06,12,7.00
2020,08,13,06,13,7.00
2020,08,13,06,14,7.00
2020,08,13,06,15,6.90
2020,08,13,06,16,6.90
2020,08,13,06,17,6.90
2020,08,13,06,18,6.90
2020,08,13,06,19,6.80
2020,08,13,06,20,6.80
2020,08,13,06,21,6.80
2020,08,13,06,22,6.80
2020,08,13,06,23,6.70
2020,08,13,06,24,6.70
2020,08,13,06,25,6.70
2020,08,13,06,26,6.70
2020,08,13,06,27,6.70
2020,08,13,06,28,6.70
2020,08,13,06,29,6.70
2020,08,13,06,30,6.80
2020,08,13,06,31,6.80
2020,08,13,06,32,6.80
2020,08,13,06,33,6.90
2020,08,13,06,34,6.90
2020,08,13,06,35,7.00
2020,08,13,06,36,7.00
2020,08,13,06,37,7.10
2020,08,13,06,38,7.10
2020,08,13,06,39,7.20
2020,08,13,06,40,7.20
2020,08,13,06,41,7.20
2020,08,13,06,42,7.30
2020,08,13,06,43,7.30
2020,08,13,06,44,7.30
2020,08,13,06,45,7.30
2020,08,13,06,46,7.40
2020,08,13,06,47,7.40
2020,08,13,06,48,7.40
2020,08,13,06,49,7.50
2020,08,13,06,50,7.50
2020,08,13,06,51,7.50
2020,08,13,06,52,7.60
2020,08,13,06,53,7.60
2020,08,13,06,54,7.70
2020,08,13,06,55,7.70
2020,08,13,06,56,7.70
2020,08,13,06,57,7.70
2020,08,13,06,58,7.70
2020,08,13,06,59,7.70
2020,08,13,07,00,7.70
2020,08,13,07,01,7.60
2020,08,13,07,02,7.60
2020,08,13,07,03,7.60
2020,08,13,07,04,7.60
2020,08,13,07,05,7.50
2020,08,13,07,06,7.50
2020,08,13,07,07,7.50
2020,08,13,07,08,7.50
2020,08,13,07,09,7.50
2020,08,13,07,10,7.50
2020,08,13,07,11,7.50
2020,08,13,07,12,7.50
2020,08,13,07,13,7.60
2020,08,13,07,14,7.60
2020,08,13,07,15,7.60
2020,08,13,07,16,7.60
2020,08,13,07,17,7.70
2020,08,13,07,18,7.70
2020,08,13,07,19,7.70
2020,08,13,07,20,7.80
2020,08,13,07,21,7.80
2020,08,13,07,22,7.80
2020,08,13,07,23,7.90
2020,08,13,07,24,7.90
2020,08,13,07,25,8.00
2020,08,13,07,26,8.10
2020,08,13,07,27,8.20
2020,08,13,07,28,8.30
2020,08,13,07,29,8.40
2020,08,13,07,30,8.50
2020,08,13,07,31,8.50
2020,08,13,07,32,8.60
2020,08,13,07,33,8.60
2020,08,13,07,34,8.70
2020,08,13,07,35,8.70
2020,08,13,07,36,8.80
2020,08,13,07,37,8.80
2020,08,13,07,38,8.80
2020,08,13,07,39,8.90
2020,08,13,07,40,8.90
2020,08,13,07,41,9.00
2020,08,13,07,42,9.10
2020,08,13,07,43,9.10
2020,08,13,07,44,9.10
2020,08,13,07,45,9.20
2020,08,13,07,46,9.20
2020,08,13,07,47,9.20
2020,08,13,07,48,9.20
2020,08,13,07,49,9.30
2020,08,13,07,50,9.30
2020,08,13,07,51,9.30
2020,08,13,07,52,9.30
2020,08,13,07,53,9.30
2020,08,13,07,54,9.30
2020,08,13,07,55,9.30
2020,08,13,07,56,9.40
2020,08,13,07,57,9.40
2020,08,13,07,58,9.40
2020,08,13,07,59,9.40
2020,08,13,08,00,9.40
2020,08,13,08,01,9.50
2020,08,13,08,02,9.50
2020,08,13,08,03,9.50
2020,08,13,08,04,9.60
2020,08,13,08,05,9.60
2020,08,13,08,06,9.60
2020,08,13,08,07,9.70
2020,08,13,08,08,9.70
2020,08,13,08,09,9.80
2020,08,13,08,10,9.80
2020,08,13,08,11,9.80
2020,08,13,08,12,9.90
2020,08,13,08,13,10.00
2020,08,13,08,14,10.00
2020,08,13,08,15,10.10
2020,08,13,08,16,10.20
2020,08,13,08,17,10.30
2020,08,13,08,18,10.40
2020,08,13,08,19,10.40
2020,08,13,08,20,10.50
2020,08,13,08,21,10.60
2020,08,13,08,22,10.70
2020,08,13,08,23,10.80
2020,08,13,08,24,10.90
2020,08,13,08,25,11.00
2020,08,13,08,26,11.20
2020,08,13,08,27,11.30
2020,08,13,08,28,11.40
2020,08,13,08,29,11.60
2020,08,13,08,30,11.70
2020,08,13,08,31,11.90
2020,08,13,08,32,12.00
2020,08,13,08,33,12.10
2020,08,13,08,34,12.20
2020,08,13,08,35,12.30
2020,08,13,08,36,12.50
2020,08,13,08,37,12.60
2020,08,13,08,38,12.60
2020,08,13,08,39,12.70
2020,08,13,08,40,12.80
2020,08,13,08,41,12.90
2020,08,13,08,42,13.00
2020,08,13,08,43,13.10
2020,08,13,08,44,13.20
2020,08,13,08,45,13.30
2020,08,13,08,46,13.40
2020,08,13,08,47,13.50
2020,08,13,08,48,13.50
2020,08,13,08,49,13.60
2020,08,13,08,50,13.70
2020,08,13,08,51,13.80
2020,08,13,08,52,13.90
2020,08,13,08,53,13.90
2020,08,13,08,54,14.00
2020,08,13,08,55,14.10
2020,08,13,08,56,14.20
2020,08,13,08,57,14.30
2020,08,13,08,58,14.40
2020,08,13,08,59,14.50
2020,08,13,09,00,14.70
2020,08,13,09,01,14.80
2020,08,13,09,02,14.90
2020,08,13,09,03,15.00
2020,08,13,09,04,15.00
2020,08,13,09,05,15.10
2020,08,13,09,06,15.20
2020,08,13,09,07,15.20
2020,08,13,09,08,15.30
2020,08,13,09,09,15.30
2020,08,13,09,10,15.40
2020,08,13,09,11,15.40
2020,08,13,09,12,15.40
2020,08,13,09,13,15.50
2020,08,13,09,14,15.60
2020,08,13,09,15,15.60
2020,08,13,09,16,15.70
2020,08,13,09,17,15.80
2020,08,13,09,18,15.80
2020,08,13,09,19,15.90
2020,08,13,09,20,16.00
2020,08,13,09,21,16.00
2020,08,13,09,22,16.10
2020,08,13,09,23,16.20
2020,08,13,09,24,16.20
2020,08,13,09,25,16.30
2020,08,13,09,26,16.40
2020,08,13,09,27,16.50
2020,08,13,09,28,16.60
2020,08,13,09,29,16.60
2020,08,13,09,30,16.70
2020,08,13,09,31,16.80
2020,08,13,09,32,16.90
2020,08,13,09,33,16.90
2020,08,13,09,34,17.00
2020,08,13,09,35,17.00
2020,08,13,09,36,17.10
2020,08,13,09,37,17.10
2020,08,13,09,38,17.20
2020,08,13,09,39,17.30
2020,08,13,09,40,17.30
2020,08,13,09,41,17.40
2020,08,13,09,42,17.50
2020,08,13,09,43,17.60
2020,08,13,09,44,17.70
2020,08,13,09,45,17.70
2020,08,13,09,46,17.80
2020,08,13,09,47,17.90
2020,08,13,09,48,17.90
2020,08,13,09,49,18.00
2020,08,13,09,50,18.10
2020,08,13,09,51,18.10
2020,08,13,09,52,18.20
2020,08,13,09,53,18.20
2020,08,13,09,54,18.30
2020,08,13,09,55,18.30
2020,08,13,09,56,18.30
2020,08,13,09,57,18.40
2020,08,13,09,58,18.40
2020,08,13,09,59,18.40
2020,08,13,10,00,18.40
2020,08,13,10,01,18.40
2020,08,13,10,02,18.30
2020,08,13,10,03,18.30
2020,08,13,10,04,18.20
2020,08,13,10,05,18.20
2020,08,13,10,06,18.10
2020,08,13,10,07,18.10
2020,08,13,10,08,18.10
2020,08,13,10,09,18.10
2020,08,13,10,10,18.10
2020,08,13,10,11,18.10
2020,08,13,10,12,18.10
2020,08,13,10,13,18.00
2020,08,13,10,14,18.10
2020,08,13,10,15,18.10
2020,08,13,10,16,18.10
2020,08,13,10,17,18.20
2020,08,13,10,18,18.20
2020,08,13,10,19,18.20
2020,08,13,10,20,18.20
2020,08,13,10,21,18.20
2020,08,13,10,22,18.30
2020,08,13,10,23,18.30
2020,08,13,10,24,18.40
2020,08,13,10,25,18.40
2020,08,13,10,26,18.40
2020,08,13,10,27,18.50
2020,08,13,10,28,18.50
2020,08,13,10,29,18.50
2020,08,13,10,30,18.50
2020,08,13,10,31,18.50
2020,08,13,10,32,18.50
2020,08,13,10,33,18.60
2020,08,13,10,34,18.60
2020,08,13,10,35,18.60
2020,08,13,10,36,18.60
2020,08,13,10,37,18.60
2020,08,13,10,38,18.60
2020,08,13,10,39,18.60
2020,08,13,10,40,18.60
2020,08,13,10,41,18.60
2020,08,13,10,42,18.60
2020,08,13,10,43,18.60
2020,08,13,10,44,18.60
2020,08,13,10,45,18.70
2020,08,13,10,46,18.70
2020,08,13,10,47,18.70
2020,08,13,10,48,18.70
2020,08,13,10,49,18.70
2020,08,13,10,50,18.70
2020,08,13,10,51,18.80
2020,08,13,10,52,18.80
2020,08,13,10,53,18.80
2020,08,13,10,54,18.80
2020,08,13,10,55,18.80
2020,08,13,10,56,18.80
2020,08,13,10,57,18.80
2020,08,13,10,58,18.70
2020,08,13,10,59,18.70
2020,08,13,11,00,18.60
2020,08,13,11,01,18.60
2020,08,13,11,02,18.50
2020,08,13,11,03,18.40
2020,08,13,11,04,18.40
2020,08,13,11,05,18.40
2020,08,13,11,06,18.40
2020,08,13,11,07,18.50
2020,08,13,11,08,18.60
2020,08,13,11,09,18.70
2020,08,13,11,10,18.90
2020,08,13,11,11,19.10
2020,08,13,11,12,19.20
2020,08,13,11,13,19.30
2020,08,13,11,14,19.40
2020,08,13,11,15,19.40
2020,08,13,11,16,19.40
2020,08,13,11,17,19.40
2020,08,13,11,18,19.40
2020,08,13,11,19,19.50
2020,08,13,11,20,19.50
2020,08,13,11,21,19.60
2020,08,13,11,22,19.60
2020,08,13,11,23,19.60
2020,08,13,11,24,19.60
2020,08,13,11,25,19.50
2020,08,13,11,26,19.40
2020,08,13,11,27,19.30
2020,08,13,11,28,19.20
2020,08,13,11,29,19.20
2020,08,13,11,30,19.20
2020,08,13,11,31,19.30
2020,08,13,11,32,19.40
2020,08,13,11,33,19.50
2020,08,13,11,34,19.60
2020,08,13,11,35,19.70
2020,08,13,11,36,19.70
2020,08,13,11,37,19.70
2020,08,13,11,38,19.80
2020,08,13,11,39,19.80
2020,08,13,11,40,19.70
2020,08,13,11,41,19.70
2020,08,13,11,42,19.70
2020,08,13,11,43,19.80
2020,08,13,11,44,19.80
2020,08,13,11,45,19.80
2020,08,13,11,46,19.80
2020,08,13,11,47,19.80
2020,08,13,11,48,19.80
2020,08,13,11,49,19.80
2020,08,13,11,50,19.80
2020,08,13,11,51,19.90
2020,08,13,11,52,19.90
2020,08,13,11,53,19.90
2020,08,13,11,54,20.00
2020,08,13,11,55,20.00
2020,08,13,11,56,20.10
2020,08,13,11,57,20.10
2020,08,13,11,58,20.10
2020,08,13,11,59,20.10
2020,08,13,12,00,20.10
2020,08,13,12,01,20.10
2020,08,13,12,02,20.20
2020,08,13,12,03,20.20
2020,08,13,12,04,20.20
2020,08,13,12,05,20.20
2020,08,13,12,06,20.20
2020,08,13,12,07,20.20
2020,08,13,12,08,20.20
2020,08,13,12,09,20.10
2020,08,13,12,10,20.00
2020,08,13,12,11,19.90
2020,08,13,12,12,19.90
2020,08,13,12,13,19.90
2020,08,13,12,14,19.90
2020,08,13,12,15,19.90
2020,08,13,12,16,19.80
2020,08,13,12,17,19.80
2020,08,13,12,18,19.80
2020,08,13,12,19,19.90
2020,08,13,12,20,20.00
2020,08,13,12,21,20.00
2020,08,13,12,22,20.00
2020,08,13,12,23,19.90
2020,08,13,12,24,19.80
2020,08,13,12,25,19.80
2020,08,13,12,26,19.80
2020,08,13,12,27,19.90
2020,08,13,12,28,19.90
2020,08,13,12,29,19.90
2020,08,13,12,30,19.90
2020,08,13,12,31,20.00
2020,08,13,12,32,20.00
2020,08,13,12,33,20.00
2020,08,13,12,34,19.90
2020,08,13,12,35,19.90
2020,08,13,12,36,19.90
2020,08,13,12,37,19.90
2020,08,13,12,38,19.80
2020,08,13,12,39,19.80
2020,08,13,12,40,19.80
2020,08,13,12,41,19.70
2020,08,13,12,42,19.70
2020,08,13,12,43,19.70
2020,08,13,12,44,19.70
2020,08,13,12,45,19.70
2020,08,13,12,46,19.80
2020,08,13,12,47,19.80
2020,08,13,12,48,19.90
2020,08,13,12,49,19.90
2020,08,13,12,50,19.90
2020,08,13,12,51,19.80
2020,08,13,12,52,19.80
2020,08,13,12,53,19.70
2020,08,13,12,54,19.70
2020,08,13,12,55,19.70
2020,08,13,12,56,19.70
2020,08,13,12,57,19.70
2020,08,13,12,58,19.70
2020,08,13,12,59,19.60
2020,08,13,13,00,19.60
2020,08,13,13,01,19.60
2020,08,13,13,02,19.60
2020,08,13,13,03,19.60
2020,08,13,13,04,19.80
2020,08,13,13,05,19.90
2020,08,13,13,06,20.10
2020,08,13,13,07,20.20
2020,08,13,13,08,20.30
2020,08,13,13,09,20.30
2020,08,13,13,10,20.30
2020,08,13,13,11,20.40
2020,08,13,13,12,20.40
2020,08,13,13,13,20.40
2020,08,13,13,14,20.40
2020,08,13,13,15,20.30
2020,08,13,13,16,20.20
2020,08,13,13,17,20.20
2020,08,13,13,18,20.20
2020,08,13,13,19,20.20
2020,08,13,13,20,20.20
2020,08,13,13,21,20.10
2020,08,13,13,22,20.10
2020,08,13,13,23,20.10
2020,08,13,13,24,20.10
2020,08,13,13,25,20.10
2020,08,13,13,26,20.20
2020,08,13,13,27,20.20
2020,08,13,13,28,20.30
2020,08,13,13,29,20.50
2020,08,13,13,30,20.60
2020,08,13,13,31,20.50
2020,08,13,13,32,20.50
2020,08,13,13,33,20.60
2020,08,13,13,34,20.60
2020,08,13,13,35,20.50
2020,08,13,13,36,20.40
2020,08,13,13,37,20.40
2020,08,13,13,38,20.30
2020,08,13,13,39,20.30
2020,08,13,13,40,20.30
2020,08,13,13,41,20.20
2020,08,13,13,42,20.20
2020,08,13,13,43,20.30
2020,08,13,13,44,20.40
2020,08,13,13,45,20.40
2020,08,13,13,46,20.40
2020,08,13,13,47,20.40
2020,08,13,13,48,20.40
2020,08,13,13,49,20.40
2020,08,13,13,50,20.30
2020,08,13,13,51,20.30
2020,08,13,13,52,20.20
2020,08,13,13,53,20.20
2020,08,13,13,54,20.20
2020,08,13,13,55,20.20
2020,08,13,13,56,20.20
2020,08,13,13,57,20.30
2020,08,13,13,58,20.50
2020,08,13,13,59,20.60
2020,08,13,14,00,20.60
2020,08,13,14,01,20.60
2020,08,13,14,02,20.50
2020,08,13,14,03,20.50
2020,08,13,14,04,20.60
2020,08,13,14,05,20.60
2020,08,13,14,06,20.60
2020,08,13,14,07,20.60
2020,08,13,14,08,20.60
2020,08,13,14,09,20.70
2020,08,13,14,10,20.70
2020,08,13,14,11,20.70
2020,08,13,14,12,20.70
2020,08,13,14,13,20.70
2020,08,13,14,14,20.70
2020,08,13,14,15,20.80
2020,08,13,14,16,20.90
2020,08,13,14,17,21.00
2020,08,13,14,18,21.00
2020,08,13,14,19,21.10
2020,08,13,14,20,21.10
2020,08,13,14,21,21.10
2020,08,13,14,22,21.00
2020,08,13,14,23,21.00
2020,08,13,14,24,21.00
2020,08,13,14,25,21.00
2020,08,13,14,26,21.10
2020,08,13,14,27,21.20
2020,08,13,14,28,21.20
2020,08,13,14,29,21.20
2020,08,13,14,30,21.10
2020,08,13,14,31,21.10
2020,08,13,14,32,21.00
2020,08,13,14,33,21.00
2020,08,13,14,34,21.10
2020,08,13,14,35,21.10
2020,08,13,14,36,21.10
2020,08,13,14,37,21.10
2020,08,13,14,38,21.00
2020,08,13,14,39,21.00
2020,08,13,14,40,20.90
2020,08,13,14,41,20.80
2020,08,13,14,42,20.70
2020,08,13,14,43,20.70
2020,08,13,14,44,20.70
2020,08,13,14,45,20.70
2020,08,13,14,46,20.80
2020,08,13,14,47,20.90
2020,08,13,14,48,21.00
2020,08,13,14,49,21.10
2020,08,13,14,50,21.20
2020,08,13,14,51,21.10
2020,08,13,14,52,21.10
2020,08,13,14,53,21.10
2020,08,13,14,54,21.00
2020,08,13,14,55,20.90
2020,08,13,14,56,20.90
2020,08,13,14,57,20.90
2020,08,13,14,58,20.90
2020,08,13,14,59,20.90
2020,08,13,15,00,21.00
2020,08,13,15,01,21.10
2020,08,13,15,02,21.20
2020,08,13,15,03,21.40
2020,08,13,15,04,21.40
2020,08,13,15,05,21.40
2020,08,13,15,06,21.40
2020,08,13,15,07,21.40
2020,08,13,15,08,21.40
2020,08,13,15,09,21.40
2020,08,13,15,10,21.40
2020,08,13,15,11,21.40
2020,08,13,15,12,21.40
2020,08,13,15,13,21.50
2020,08,13,15,14,21.60
2020,08,13,15,15,21.70
2020,08,13,15,16,21.70
2020,08,13,15,17,21.70
2020,08,13,15,18,21.70
2020,08,13,15,19,21.80
2020,08,13,15,20,21.80
2020,08,13,15,21,21.80
2020,08,13,15,22,21.90
2020,08,13,15,23,21.90
2020,08,13,15,24,21.90
2020,08,13,15,25,21.90
2020,08,13,15,26,21.90
2020,08,13,15,27,21.80
2020,08,13,15,28,21.70
2020,08,13,15,29,21.70
2020,08,13,15,30,21.70
2020,08,13,15,31,21.60
2020,08,13,15,32,21.60
2020,08,13,15,33,21.50
2020,08,13,15,34,21.50
2020,08,13,15,35,21.40
2020,08,13,15,36,21.30
2020,08,13,15,37,21.20
2020,08,13,15,38,21.00
2020,08,13,15,39,20.90
2020,08,13,15,40,20.70
2020,08,13,15,41,20.60
2020,08,13,15,42,20.50
2020,08,13,15,43,20.40
2020,08,13,15,44,20.40
2020,08,13,15,45,20.30
2020,08,13,15,46,20.20
2020,08,13,15,47,20.20
2020,08,13,15,48,20.20
2020,08,13,15,49,20.20
2020,08,13,15,50,20.20
2020,08,13,15,51,20.30
2020,08,13,15,52,20.30
2020,08,13,15,53,20.40
2020,08,13,15,54,20.50
2020,08,13,15,55,20.50
2020,08,13,15,56,20.60
2020,08,13,15,57,20.60
2020,08,13,15,58,20.70
2020,08,13,15,59,20.70
2020,08,13,16,00,20.60
2020,08,13,16,01,20.60
2020,08,13,16,02,20.60
2020,08,13,16,03,20.50
2020,08,13,16,04,20.50
2020,08,13,16,05,20.40
2020,08,13,16,06,20.40
2020,08,13,16,07,20.30
2020,08,13,16,08,20.30
2020,08,13,16,09,20.30
2020,08,13,16,10,20.30
2020,08,13,16,11,20.40
2020,08,13,16,12,20.40
2020,08,13,16,13,20.40
2020,08,13,16,14,20.40
2020,08,13,16,15,20.50
2020,08,13,16,16,20.50
2020,08,13,16,17,20.50
2020,08,13,16,18,20.50
2020,08,13,16,19,20.50
2020,08,13,16,20,20.50
2020,08,13,16,21,20.40
2020,08,13,16,22,20.40
2020,08,13,16,23,20.40
2020,08,13,16,24,20.30
2020,08,13,16,25,20.30
2020,08,13,16,26,20.20
2020,08,13,16,27,20.30
2020,08,13,16,28,20.40
2020,08,13,16,29,20.40
2020,08,13,16,30,20.50
2020,08,13,16,31,20.50
2020,08,13,16,32,20.60
2020,08,13,16,33,20.70
2020,08,13,16,34,20.70
2020,08,13,16,35,20.80
2020,08,13,16,36,20.80
2020,08,13,16,37,20.90
2020,08,13,16,38,20.90
2020,08,13,16,39,20.90
2020,08,13,16,40,20.90
2020,08,13,16,41,20.90
2020,08,13,16,42,20.90
2020,08,13,16,43,20.90
2020,08,13,16,44,20.90
2020,08,13,16,45,20.90
2020,08,13,16,46,20.80
2020,08,13,16,47,20.70
2020,08,13,16,48,20.60
2020,08,13,16,49,20.60
2020,08,13,16,50,20.60
2020,08,13,16,51,20.50
2020,08,13,16,52,20.50
2020,08,13,16,53,20.50
2020,08,13,16,54,20.50
2020,08,13,16,55,20.60
2020,08,13,16,56,20.50
2020,08,13,16,57,20.60
2020,08,13,16,58,20.70
2020,08,13,16,59,20.60
2020,08,13,17,00,20.60
2020,08,13,17,01,20.60
2020,08,13,17,02,20.60
2020,08,13,17,03,20.60
2020,08,13,17,04,20.60
2020,08,13,17,05,20.60
2020,08,13,17,06,20.50
2020,08,13,17,07,20.40
2020,08,13,17,08,20.30
2020,08,13,17,09,20.30
2020,08,13,17,10,20.20
2020,08,13,17,11,20.20
2020,08,13,17,12,20.20
2020,08,13,17,13,20.20
2020,08,13,17,14,20.30
2020,08,13,17,15,20.30
2020,08,13,17,16,20.40
2020,08,13,17,17,20.50
2020,08,13,17,18,20.50
2020,08,13,17,19,20.60
2020,08,13,17,20,20.70
2020,08,13,17,21,20.80
2020,08,13,17,22,20.90
2020,08,13,17,23,20.90
2020,08,13,17,24,21.00
2020,08,13,17,25,21.00
2020,08,13,17,26,21.00
2020,08,13,17,27,21.00
2020,08,13,17,28,21.00
2020,08,13,17,29,21.00
2020,08,13,17,30,21.00
2020,08,13,17,31,21.00
2020,08,13,17,32,21.10
2020,08,13,17,33,21.10
2020,08,13,17,34,21.10
2020,08,13,17,35,21.10
2020,08,13,17,36,21.10